Погода в Оленьем

Россия / Республика Карелия     63°59′35″N   33°34′18″E
темп.,
°C
ветер,
м/с
пор.,
м/с
влажн.,
%
обл.,
%
осадки,
мм/ч
давл.,
гПа
погр.,
м
13 июня, вс
вс1300:00+15юв387692 0.0 1004325
03:00+15юв4118098 0.1 1003560
06:00+16ююв497427 0.1 1002578
09:00+18ю576896 0.1 10021017
12:00+23ю454414 0.0 10011891
15:00+24ю4637100 0.0 10001946
18:00+23юз6845100 0.1 10012087
21:00+14сз4889100 0.6 1004403
14 июня, пн
пн1400:00+12зсз3792100 0.3 1006490
03:00+11з3893100 0.9 1007376
06:00+12з37850 0.4 1008355
09:00+15з4655100 0.4 1009643
12:00+19з463376 0.0 10102070
15:00+20зюз57308 0.0 10102120
18:00+19зюз463477 0.0 10101969
21:00+16юз25525 0.0 1010138
15 июня, вт
вт1500:00+12ююз3663100 0.0 1010112
03:00+12ю41264100 0.0 1008363
06:00+14ю51456100 0.0 1005749
09:00+16ю71647100 0.0 10021269
12:00+17ююз8145724 0.0 10021545
15:00+18юз7114890 0.3 10022046
18:00+18з610405 0.0 10022436
21:00+15з49545 0.0 1003989
16 июня, ср
ср1600:00+9зюз39776 0.1 1005188
03:00+8зюз311845 0.1 1006245
06:00+11з47710 0.0 1008463
09:00+14з355646 0.0 10091271
12:00+15сз465479 0.3 10111470
15:00+17зсз4743100 0.3 10122034
18:00+16зсз464889 0.0 10131496
21:00+13сз38645 0.1 1015607
17 июня, чт
чт1700:00+8зсз29724 0.0 1017198
03:00+6зсз310645 0.0 1019232
06:00+10зсз35565 0.0 1021258
09:00+15з343750 0.0 10221153
12:00+19зюз35287 0.0 10211726
15:00+20зюз363369 0.0 10191551
18:00+23зюз483776 0.0 10182354
21:00+19юз41048100 0.0 1017450